�N����,����,�~����,�C��,���x,�C��,����,���ϕ���,�ő�u�ԕ���,�ő厞����,���˗�,�I�_���x,�n�����x,�ő啗���N��,DTYPE
"22/04/22","00:10",0.2,15.5,96.6,1006.9,251.5,1.1,1.8,246.3,0.00,15.0,15.7,"00:01:28",1
"22/04/22","00:20",0.0,15.5,96.7,1006.9,310.5,1.2,1.8,313.9,0.00,15.0,15.5,"00:15:20",1
"22/04/22","00:30",0.0,15.4,96.7,1006.9,308.1,0.8,1.6,324.0,0.00,14.9,15.6,"00:23:20",1
"22/04/22","00:40",0.0,15.4,96.8,1007.1,304.4,1.0,1.6,323.9,0.00,14.9,15.4,"00:37:04",1
"22/04/22","00:50",0.0,15.3,96.8,1006.7,326.5,1.3,2.0,339.4,0.00,14.8,15.5,"00:42:02",1
"22/04/22","01:00",0.0,15.2,96.9,1006.7,310.2,1.1,1.8,322.2,0.00,14.8,15.6,"00:58:12",1
"22/04/22","01:10",0.0,15.2,97.0,1006.7,312.9,1.1,1.6,326.9,0.00,14.8,15.6,"01:09:42",1
"22/04/22","01:20",0.0,15.2,97.0,1006.7,297.3,1.0,1.7,322.0,0.00,14.8,15.4,"01:11:04",1
"22/04/22","01:30",0.0,15.2,97.0,1006.4,314.7,1.3,1.7,325.2,0.00,14.8,15.7,"01:28:12",1
"22/04/22","01:40",0.0,15.2,97.0,1006.9,284.5,1.1,1.2,267.4,0.00,14.8,15.6,"01:32:08",1
"22/04/22","01:50",0.0,15.2,97.1,1006.7,299.6,1.1,1.6,309.7,0.00,14.8,15.4,"01:41:22",1
"22/04/22","02:00",0.0,15.2,97.1,1006.9,292.8,1.2,1.7,289.9,0.00,14.8,15.5,"01:52:36",1
"22/04/22","02:10",0.0,15.2,97.1,1006.9,269.6,0.8,1.2,272.9,0.00,14.8,15.4,"02:06:18",1
"22/04/22","02:20",0.0,15.2,97.2,1006.7,265.5,0.3,0.9,269.4,0.00,14.8,15.6,"02:10:08",1
"22/04/22","02:30",0.0,15.2,97.2,1006.9,323.7,1.2,1.7,343.2,0.00,14.8,15.3,"02:26:20",1
"22/04/22","02:40",0.0,15.1,97.2,1006.9,323.8,1.3,1.9,327.9,0.00,14.7,15.5,"02:30:24",1
"22/04/22","02:50",0.0,15.1,97.3,1006.9,331.4,1.2,1.6,336.1,0.00,14.7,15.5,"02:41:06",1
"22/04/22","03:00",0.0,15.1,97.4,1006.7,318.4,1.2,1.6,325.3,0.00,14.7,15.4,"02:56:14",1
"22/04/22","03:10",0.0,15.1,97.4,1006.9,279.0,0.8,1.4,311.2,0.00,14.7,15.5,"03:09:18",1
"22/04/22","03:20",0.0,15.1,97.4,1006.9,303.7,1.1,1.3,300.2,0.00,14.7,15.5,"03:15:56",1
"22/04/22","03:30",0.0,15.2,97.4,1007.1,272.9,0.8,1.4,312.5,0.00,14.8,15.4,"03:20:08",1
"22/04/22","03:40",0.0,15.2,97.4,1007.1,308.3,0.7,1.3,290.7,0.00,14.8,15.6,"03:36:10",1
"22/04/22","03:50",0.0,15.2,97.5,1007.4,312.1,1.0,1.7,323.7,0.00,14.8,15.5,"03:49:06",1
"22/04/22","04:00",0.0,15.1,97.5,1007.4,321.1,1.5,2.0,326.7,0.00,14.7,15.5,"03:59:12",1
"22/04/22","04:10",0.0,15.2,97.6,1007.6,314.2,1.2,2.0,317.0,0.00,14.9,15.4,"04:02:04",1
"22/04/22","04:20",0.0,15.2,97.6,1007.6,326.2,1.3,2.0,324.2,0.00,14.9,15.6,"04:16:28",1
"22/04/22","04:30",0.0,15.1,97.6,1007.8,320.6,1.2,1.8,326.1,0.00,14.8,15.3,"04:20:08",1
"22/04/22","04:40",0.0,15.1,97.6,1007.6,301.8,1.0,1.3,312.2,0.00,14.8,15.6,"04:32:22",1
"22/04/22","04:50",0.0,15.2,97.7,1007.6,322.1,1.2,1.7,331.3,0.00,14.9,15.5,"04:43:54",1
"22/04/22","05:00",0.0,15.2,97.7,1007.6,301.5,1.1,1.7,310.5,0.00,14.9,15.5,"04:53:24",1
"22/04/22","05:10",0.0,15.2,97.7,1007.6,318.7,1.2,1.9,336.0,0.00,14.9,15.4,"05:06:40",1
"22/04/22","05:20",0.0,15.1,97.7,1007.8,313.1,1.5,1.8,320.8,0.00,14.8,15.4,"05:14:18",1
"22/04/22","05:30",0.0,15.1,97.8,1008.1,306.1,1.3,1.9,324.2,0.00,14.8,15.4,"05:20:26",1
"22/04/22","05:40",0.0,15.1,97.8,1008.1,316.0,1.2,1.7,320.8,0.00,14.8,15.2,"05:34:16",1
"22/04/22","05:50",0.0,15.1,97.8,1008.3,305.7,1.5,1.7,329.5,0.00,14.8,15.3,"05:41:16",1
"22/04/22","06:00",0.0,15.1,97.9,1008.6,301.6,1.3,2.1,323.2,0.00,14.8,15.4,"05:56:28",1
"22/04/22","06:10",0.0,15.1,97.9,1008.8,314.6,1.3,1.8,323.2,0.00,14.8,15.6,"06:07:58",1
"22/04/22","06:20",0.0,15.2,97.9,1009.0,283.7,1.2,1.9,311.9,0.00,14.9,15.4,"06:18:58",1
"22/04/22","06:30",0.0,15.2,98.0,1008.6,280.0,1.0,1.6,268.5,0.00,14.9,15.3,"06:23:52",1
"22/04/22","06:40",0.0,15.6,97.5,1009.0,284.0,0.7,1.0,276.4,0.01,15.2,15.3,"06:34:32",1
"22/04/22","06:50",0.0,15.5,97.9,1009.3,319.3,1.1,1.6,320.3,0.01,15.2,15.3,"06:49:28",1
"22/04/22","07:00",0.0,15.5,97.9,1009.3,285.5,0.8,1.6,296.2,0.00,15.2,15.5,"06:51:52",1
"22/04/22","07:10",0.0,15.7,97.9,1009.3,268.2,0.2,0.8,249.9,0.00,15.4,15.4,"07:09:28",1
"22/04/22","07:20",0.0,15.8,98.0,1009.5,260.1,0.5,0.8,261.9,0.02,15.5,15.3,"07:10:40",1
"22/04/22","07:30",0.0,16.3,97.4,1009.7,274.4,0.5,1.1,326.2,0.07,15.9,15.1,"07:29:44",1
"22/04/22","07:40",0.0,16.1,97.8,1009.7,298.1,0.7,1.2,327.9,0.03,15.8,15.3,"07:34:48",1
"22/04/22","07:50",0.0,16.3,97.8,1009.7,292.0,0.7,1.6,263.2,0.04,16.0,15.2,"07:46:48",1
"22/04/22","08:00",0.0,16.2,97.9,1009.7,308.2,1.1,1.9,341.4,0.04,15.9,15.4,"07:55:20",1
"22/04/22","08:10",0.0,16.2,97.9,1009.5,316.9,1.1,1.7,339.8,0.02,15.9,15.5,"08:09:04",1
"22/04/22","08:20",0.0,16.2,97.9,1009.5,284.0,1.1,2.1,333.1,0.02,15.9,15.4,"08:10:08",1
"22/04/22","08:30",0.0,16.3,98.0,1009.5,272.9,0.8,1.7,299.6,0.06,16.0,15.5,"08:23:52",1
"22/04/22","08:40",0.0,16.7,97.5,1010.0,297.5,0.8,1.4,251.2,0.06,16.3,15.4,"08:30:32",1
"22/04/22","08:50",0.0,16.5,98.0,1009.7,304.2,1.1,2.2,332.8,0.09,16.2,15.2,"08:45:44",1
"22/04/22","09:00",0.0,17.1,97.4,1009.7,331.8,0.8,2.0,352.0,0.14,16.7,15.4,"08:58:16",1
"22/04/22","09:10",0.0,16.8,97.8,1010.0,328.1,1.8,2.8,308.9,0.18,16.5,15.6,"09:00:08",1
"22/04/22","09:20",0.0,17.2,97.7,1010.0,318.7,1.3,3.2,324.2,0.20,16.9,15.4,"09:15:20",1
"22/04/22","09:30",0.0,17.7,97.3,1010.0,279.3,1.2,2.6,298.1,0.30,17.3,15.7,"09:24:24",1
"22/04/22","09:40",0.0,17.9,96.1,1009.7,330.7,1.3,3.7,342.9,0.44,17.3,15.5,"09:38:40",1
"22/04/22","09:50",0.0,18.4,95.1,1009.5,354.6,1.5,2.9,355.0,0.36,17.6,15.2,"09:41:20",1
"22/04/22","10:00",0.0,18.5,94.4,1009.7,54.1,0.8,1.8,99.7,0.22,17.6,15.5,"09:50:16",1
"22/04/22","10:10",0.0,18.6,93.6,1009.5,161.2,0.6,1.4,123.5,0.12,17.6,15.7,"10:07:12",1
"22/04/22","10:20",0.0,18.6,92.4,1009.5,35.7,0.5,1.7,38.5,0.12,17.4,15.7,"10:16:24",1
"22/04/22","10:30",0.0,18.7,90.3,1009.5,27.5,0.8,1.9,0.6,0.11,17.1,15.8,"10:24:40",1
"22/04/22","10:40",0.0,19.0,87.7,1009.3,133.0,0.7,1.7,106.8,0.11,17.0,15.7,"10:38:24",1
"22/04/22","10:50",0.0,20.5,84.6,1009.0,166.4,1.1,2.0,211.4,0.49,17.9,15.8,"10:46:48",1
"22/04/22","11:00",0.0,21.0,77.8,1008.8,148.6,1.1,2.7,126.2,0.38,17.0,16.0,"10:52:32",1
"22/04/22","11:10",0.0,21.4,74.2,1009.0,187.8,1.1,2.6,127.2,0.39,16.7,16.0,"11:08:40",1
"22/04/22","11:20",0.0,21.6,72.2,1008.8,235.1,1.5,3.9,244.7,0.41,16.4,16.0,"11:19:12",1
"22/04/22","11:30",0.0,22.2,69.7,1008.3,202.8,2.2,4.0,203.8,0.53,16.4,16.1,"11:29:20",1
"22/04/22","11:40",0.0,22.0,72.4,1008.6,193.5,2.8,5.6,225.6,0.55,16.9,16.0,"11:35:36",1
"22/04/22","11:50",0.0,22.5,72.1,1008.1,202.2,2.6,4.5,135.7,0.64,17.3,16.0,"11:42:56",1
"22/04/22","12:00",0.0,21.5,69.6,1008.3,211.2,2.5,3.6,211.6,0.28,15.8,16.1,"11:53:36",1
"22/04/22","12:10",0.0,21.8,67.8,1008.1,255.2,1.7,4.2,244.2,0.41,15.6,16.3,"12:05:12",1
"22/04/22","12:20",0.0,23.3,67.1,1007.8,190.3,1.3,3.5,241.3,0.68,16.9,16.5,"12:12:00",1
"22/04/22","12:30",0.0,22.7,63.9,1007.8,240.3,2.1,5.1,225.3,0.50,15.6,16.3,"12:21:36",1
"22/04/22","12:40",0.0,23.3,63.8,1007.6,201.4,2.1,4.9,161.4,0.65,16.1,16.6,"12:39:44",1
"22/04/22","12:50",0.0,22.5,66.5,1006.9,194.4,3.0,6.0,224.8,0.44,16.0,16.3,"12:42:24",1
"22/04/22","13:00",0.0,22.3,67.5,1006.7,194.3,1.7,4.5,151.4,0.22,16.0,16.6,"12:56:24",1
"22/04/22","13:10",0.0,22.2,69.3,1007.1,192.6,2.1,4.5,246.8,0.27,16.4,16.5,"13:06:32",1
"22/04/22","13:20",0.0,23.4,64.7,1007.1,224.5,2.3,4.3,236.3,0.58,16.4,16.9,"13:15:04",1
"22/04/22","13:30",0.0,23.3,62.6,1006.9,241.1,2.5,4.3,221.2,0.50,15.8,16.9,"13:26:00",1
"22/04/22","13:40",0.0,23.7,60.5,1006.9,255.4,2.5,4.5,245.6,0.61,15.7,17.0,"13:34:24",1
"22/04/22","13:50",0.0,23.5,60.0,1006.7,223.2,2.1,4.3,236.8,0.45,15.3,17.3,"13:43:28",1
"22/04/22","14:00",0.0,24.0,59.2,1006.4,249.4,2.2,5.1,240.3,0.56,15.6,17.2,"13:55:44",1
"22/04/22","14:10",0.2,24.0,58.3,1006.4,234.1,2.0,3.9,234.5,0.45,15.4,17.3,"14:00:40",1
"22/04/22","14:20",0.0,23.9,59.8,1006.4,241.6,1.8,4.1,205.6,0.38,15.7,17.2,"14:18:56",1
"22/04/22","14:30",0.0,23.8,58.7,1006.2,244.8,2.7,6.8,234.8,0.51,15.3,17.4,"14:24:16",1
"22/04/22","14:40",0.0,24.1,59.3,1006.0,237.0,2.3,4.2,242.8,0.49,15.7,17.4,"14:34:08",1
"22/04/22","14:50",0.0,24.3,60.0,1005.7,222.6,2.7,5.5,219.2,0.48,16.1,17.7,"14:48:40",1
"22/04/22","15:00",0.0,24.0,60.2,1006.0,218.6,3.0,5.6,220.8,0.46,15.9,17.6,"14:54:00",1
"22/04/22","15:10",0.0,24.2,59.6,1005.7,227.3,2.7,5.6,236.8,0.44,15.9,17.7,"15:09:04",1
"22/04/22","15:20",0.0,23.5,60.8,1005.7,227.1,2.7,4.7,239.5,0.28,15.5,17.8,"15:12:56",1
"22/04/22","15:30",0.0,24.0,60.4,1005.7,188.9,2.7,4.8,218.3,0.33,15.9,18.0,"15:27:52",1
"22/04/22","15:40",0.0,24.0,59.5,1005.5,196.8,3.1,5.7,202.6,0.37,15.7,17.8,"15:31:28",1
"22/04/22","15:50",0.0,24.3,58.0,1005.2,219.2,2.3,5.7,191.0,0.35,15.6,17.7,"15:49:28",1
"22/04/22","16:00",0.0,23.9,58.8,1005.2,177.8,3.5,6.6,153.3,0.32,15.4,18.0,"15:53:52",1
"22/04/22","16:10",0.0,23.7,58.4,1005.5,181.9,3.2,5.7,203.1,0.30,15.1,18.1,"16:05:52",1
"22/04/22","16:20",0.0,23.6,57.7,1005.2,174.9,3.1,5.0,174.9,0.27,14.8,18.1,"16:14:40",1
"22/04/22","16:30",0.0,23.6,58.2,1005.5,204.3,2.7,5.2,218.5,0.25,15.0,18.0,"16:26:32",1
"22/04/22","16:40",0.0,23.8,57.9,1005.5,190.5,2.5,5.9,221.0,0.22,15.1,18.3,"16:37:44",1
"22/04/22","16:50",0.0,23.7,57.6,1005.2,179.1,2.2,3.9,190.4,0.20,14.9,18.2,"16:45:04",1
"22/04/22","17:00",0.0,23.4,57.8,1005.2,171.4,2.5,5.1,156.3,0.17,14.7,18.2,"16:53:20",1
"22/04/22","17:10",0.0,23.4,57.3,1005.2,225.3,2.3,4.8,222.5,0.15,14.5,18.3,"17:00:40",1
"22/04/22","17:20",0.0,23.4,57.5,1005.5,212.8,1.8,3.9,222.4,0.12,14.6,18.2,"17:10:48",1
"22/04/22","17:30",0.0,23.4,57.7,1005.5,209.3,1.6,3.9,241.8,0.10,14.6,18.2,"17:26:32",1
"22/04/22","17:40",0.0,22.7,58.1,1005.5,195.3,2.3,4.5,209.3,0.08,14.1,18.4,"17:38:24",1
"22/04/22","17:50",0.0,22.5,58.6,1005.5,196.8,2.1,3.7,213.9,0.06,14.0,18.1,"17:40:24",1
"22/04/22","18:00",0.0,22.4,58.4,1005.5,208.1,1.6,3.1,188.2,0.04,13.9,18.5,"17:52:40",1
"22/04/22","18:10",0.0,22.3,59.7,1005.7,228.3,1.5,2.6,232.8,0.03,14.1,18.5,"18:02:24",1
"22/04/22","18:20",0.0,22.1,60.7,1005.7,235.1,1.0,2.0,242.8,0.02,14.2,18.4,"18:19:36",1
"22/04/22","18:30",0.0,21.9,62.2,1006.2,266.1,1.2,2.4,254.3,0.01,14.4,18.6,"18:21:28",1
"22/04/22","18:40",0.0,21.3,65.2,1006.2,312.4,1.7,2.5,314.1,0.00,14.5,18.3,"18:34:00",1
"22/04/22","18:50",0.0,20.7,66.6,1006.2,305.4,1.2,2.5,333.9,0.00,14.3,18.4,"18:41:04",1
"22/04/22","19:00",0.0,20.4,68.0,1006.7,307.7,1.3,2.7,337.5,0.00,14.3,18.4,"18:50:02",1
"22/04/22","19:10",0.0,19.7,69.5,1006.7,327.7,2.6,3.6,336.5,0.00,14.0,18.4,"19:02:40",1
"22/04/22","19:20",0.0,19.4,70.2,1006.7,309.8,1.7,3.6,321.0,0.00,13.9,18.2,"19:10:40",1
"22/04/22","19:30",0.0,19.0,71.0,1006.9,321.4,1.3,2.1,307.9,0.00,13.7,18.2,"19:21:20",1
"22/04/22","19:40",0.0,18.6,72.2,1006.9,339.6,1.3,2.2,339.6,0.00,13.5,18.3,"19:38:40",1
"22/04/22","19:50",0.0,18.3,73.8,1007.4,275.6,1.3,2.2,325.1,0.00,13.6,18.1,"19:40:16",1
"22/04/22","20:00",0.0,18.1,76.2,1007.4,305.9,2.5,3.9,320.9,0.00,13.9,18.0,"19:57:36",1
"22/04/22","20:10",0.0,17.7,78.1,1007.4,332.1,3.0,4.5,327.1,0.00,13.9,18.2,"20:05:12",1
"22/04/22","20:20",0.0,17.2,79.2,1007.6,306.8,1.3,2.2,334.7,0.00,13.6,18.1,"20:10:08",1
"22/04/22","20:30",0.0,17.0,80.2,1007.6,328.0,1.1,1.8,321.3,0.00,13.6,18.2,"20:26:40",1
"22/04/22","20:40",0.0,16.7,81.4,1007.4,340.3,1.5,2.2,322.2,0.00,13.5,18.2,"20:32:08",1
"22/04/22","20:50",0.0,16.5,82.6,1007.6,332.1,1.5,2.0,340.7,0.00,13.6,18.0,"20:44:40",1
"22/04/22","21:00",0.0,16.2,83.6,1007.8,319.5,2.1,3.1,321.9,0.00,13.5,18.0,"20:59:20",1
"22/04/22","21:10",0.0,16.3,84.1,1007.8,301.3,1.6,2.4,317.0,0.00,13.7,18.0,"21:06:34",1
"22/04/22","21:20",0.0,16.1,84.6,1007.8,328.2,1.7,2.1,328.5,0.00,13.5,17.9,"21:16:00",1
"22/04/22","21:30",0.0,15.8,85.0,1008.1,282.0,1.2,1.9,315.1,0.00,13.3,17.8,"21:21:12",1
"22/04/22","21:40",0.0,15.5,85.5,1008.3,301.9,1.2,1.8,316.5,0.00,13.1,17.9,"21:37:52",1
"22/04/22","21:50",0.0,15.4,86.1,1008.3,323.0,1.8,2.7,303.6,0.00,13.1,17.8,"21:47:36",1
"22/04/22","22:00",0.0,15.5,86.2,1008.3,322.6,3.0,3.9,334.0,0.00,13.2,17.7,"21:54:56",1
"22/04/22","22:10",0.0,15.5,86.2,1008.6,314.4,2.8,4.1,321.3,0.00,13.2,17.5,"22:00:48",1
"22/04/22","22:20",0.0,15.5,86.4,1008.1,322.8,3.0,3.7,330.0,0.00,13.3,17.6,"22:16:16",1
"22/04/22","22:30",0.0,15.3,86.2,1008.8,288.9,1.7,4.3,312.3,0.00,13.0,17.7,"22:20:56",1
"22/04/22","22:40",0.0,15.0,86.5,1008.6,289.1,1.2,2.0,307.8,0.00,12.8,17.5,"22:34:08",1
"22/04/22","22:50",0.0,14.7,87.0,1008.8,305.8,1.6,2.4,329.2,0.00,12.6,17.3,"22:49:44",1
"22/04/22","23:00",0.0,14.5,87.5,1009.0,319.8,2.0,2.5,315.8,0.00,12.5,17.3,"22:52:00",1
"22/04/22","23:10",0.0,14.2,88.1,1009.0,289.4,1.2,1.7,315.2,0.00,12.3,17.3,"23:08:48",1
"22/04/22","23:20",0.0,14.0,88.5,1008.8,278.8,1.3,2.0,303.0,0.00,12.2,17.4,"23:10:40",1
"22/04/22","23:30",0.0,13.9,89.1,1008.6,311.6,1.5,2.0,337.4,0.00,12.2,17.2,"23:28:32",1
"22/04/22","23:40",0.0,13.4,89.3,1008.6,300.4,0.7,1.8,332.9,0.00,11.7,16.9,"23:30:16",1
"22/04/22","23:50",0.0,13.2,90.1,1008.8,310.9,0.8,2.0,342.2,0.00,11.7,17.2,"23:47:08",1
"22/04/22","24:00",0.0,13.0,90.5,1008.3,334.0,1.8,2.6,327.5,0.00,11.5,17.0,"23:56:00",1
